CAPE
0 0 0 0 0 0 0 0 0 0 0 0 0 0 0 0 0 0 0 0 509 287 183 39 52 39 60 12 63 15 0 0 0 0 31 0 0 0 0 0 0 0 3 101 188
0 0 0 0 0 0 0 0 0 0 0 0 0 0 0 0 0 0 0 8 218 173 332 634 87 9 14 213 153 0 0 0 0 0 34 9 19 0 0 0 0 0 3 157 128
0 0 0 0 0 0 0 0 0 0 0 0 0 0 0 0 0 0 0 0 18 264 318 347 50 5 22 87 158 68 56 57 3 12 15 0 0 0 0 0 0 0 10 186 96
0 0 0 0 0 0 0 0 0 0 0 0 0 0 0 0 0 0 0 0 0 0 0 0 0 1 26 2 14 65 110 27 0 0 0 0 0 0 0 5 0 0 0 5 23
0 0 0 0 0 0 0 0 0 0 0 0 0 0 0 0 0 0 0 0 0 0 0 0 0 4 29 40 113 57 215 267 197 41 0 2 2 0 5 0 0 0 0 0 0
0 0 0 0 0 0 0 0 0 0 0 0 0 0 0 0 0 0 0 0 0 0 0 0 0 0 6 121 235 150 146 247 219 266 124 23 61 53 15 1 0 0 0 0 0
0 0 0 0 0 0 0 0 0 0 0 0 0 0 0 0 0 0 0 0 0 0 0 0 0 0 81 194 140 181 226 275 303 181 132 34 25 15 13 1 0 0 0 0 0
0 0 0 0 0 0 0 0 0 0 0 0 0 0 0 0 0 0 0 0 0 0 0 0 0 0 59 72 30 92 93 280 395 276 44 98 36 88 48 29 4 0 0 1 0
0 0 0 0 0 0 0 0 0 0 0 0 0 0 0 0 0 0 0 0 0 0 0 0 0 0 23 46 17 0 54 14 123 209 187 395 46 36 39 24 25 14 13 2 0
0 0 0 0 0 0 0 0 0 0 0 0 0 0 0 0 0 0 0 0 0 0 0 0 0 0 0 5 42 29 21 154 174 188 361 597 241 49 46 60 34 20 16 5 0
0 0 0 0 0 0 0 0 0 0 0 0 0 0 0 0 0 0 0 0 0 0 0 0 0 0 0 0 1 0 54 167 165 265 428 238 440 46 5 49 24 19 4 11 9
0 0 0 0 0 0 0 0 0 0 0 0 0 0 0 0 0 0 0 0 0 0 0 0 0 0 0 0 0 4 58 76 77 222 307 162 507 203 71 6 6 14 14 1 19
0 0 0 0 0 0 0 0 0 0 0 0 0 0 0 0 0 0 0 0 0 0 0 0 0 0 0 0 1 2 3 0 8 55 48 289 585 536 370 202 4 10 53 97 201
0 0 0 0 0 0 0 0 0 0 0 0 0 0 0 0 0 0 0 0 0 0 0 0 0 0 0 0 0 0 2 7 0 2 27 63 376 480 515 442 206 74 147 217 286
0 0 0 0 0 0 0 0 0 0 0 0 0 0 0 0 0 0 0 0 0 0 0 0 0 0 0 0 0 0 9 8 15 15 25 22 490 349 7 481 289 203 239 284 274
0 0 0 0 0 0 0 0 0 0 0 0 0 0 0 0 0 0 0 0 0 0 0 0 0 0 0 0 0 0 1 0 2 53 74 39 276 185 489 434 493 283 417 341 312
0 0 0 0 0 0 0 0 0 0 0 0 0 0 0 0 0 0 0 0 0 0 0 0 0 0 0 0 0 0 0 0 0 0 13 3 17 1 493 519 332 415 594 423 348
0 0 0 0 0 0 0 0 0 0 0 0 0 0 0 0 0 0 0 0 0 0 0 0 0 0 0 0 0 0 0 0 0 0 0 69 53 0 131 456 239 127 493 486 459
0 0 0 0 0 0 0 0 0 0 0 0 0 0 0 0 0 0 0 0 0 0 0 0 0 0 0 0 0 0 0 0 0 0 0 0 0 5 68 197 118 236 256 545 525
0 0 0 0 0 0 0 0 0 0 0 0 0 0 0 0 0 0 0 0 0 0 0 0 0 0 0 0 0 0 0 0 0 0 0 0 0 0 2 63 96 128 264 97 440
0 0 0 0 0 0 0 0 0 0 0 0 0 0 0 0 0 0 0 0 0 0 0 0 0 0 0 0 0 0 0 0 0 0 0 0 0 0 0 0 29 52 90 118 379
0 0 0 0 0 0 0 0 0 0 0 0 0 0 0 0 0 0 0 0 0 0 0 0 0 0 0 0 0 0 0 0 0 0 0 0 0 0 0 0 22 36 26 245 797
0 0 0 0 0 0 0 0 0 0 0 0 0 0 0 0 0 0 0 0 0 0 0 0 0 0 0 0 0 0 0 0 0 0 0 0 0 0 0 6 30 32 59 73 554
0 0 0 0 0 0 0 0 0 0 0 0 0 0 0 0 0 0 0 41 0 0 0 0 0 0 0 0 0 0 0 0 0 0 0 0 0 7 9 6 45 51 230 333 339
0 0 0 0 0 0 0 0 0 0 0 0 0 0 0 0 0 0 33 116 2 0 0 0 0 0 0 0 0 0 0 0 0 0 0 0 0 13 4 51 94 92 320 423 498
0 0 0 0 0 0 0 0 0 0 0 0 0 0 0 0 0 0 13 86 101 37 26 0 0 0 0 0 0 0 0 0 0 0 0 0 0 0 158 258 415 306 398 391 358
0 0 0 0 0 0 0 0 0 0 0 0 0 0 0 0 0 0 0 0 3 47 42 8 0 0 0 0 0 0 0 0 0 0 0 0 0 33 452 772 746 576 485 643 641
CIN
-0 -0 -0 -0 -0 -0 -0 -0 -0 -0 -0 -0 -0 -0 -0 -0 -0 -0 -0 -0 -314 -441 -352 -364 -382 -290 -263 -292 -350 -38 -0 -0 -0 -0 -46 -0 -0 -0 -0 -0 -0 -0 -91 -231 -205
-0 -0 -0 -0 -0 -0 -0 -0 -0 -0 -0 -0 -0 -0 -0 -0 -0 -0 -0 -67 -378 -436 -247 -128 -228 -317 -101 -221 -248 -0 -0 -0 -0 -0 -55 -70 -116 -0 -0 -0 -0 -0 -102 -206 -203
-0 -0 -0 -0 -0 -0 -0 -0 -0 -0 -0 -0 -0 -0 -0 -0 -0 -0 -0 -0 -201 -367 -263 -192 -216 -240 -112 -179 -133 -89 -38 -23 -22 -34 -72 -0 -0 -0 -0 -0 -0 -0 -375 -246 -295
-0 -0 -0 -0 -0 -0 -0 -0 -0 -0 -0 -0 -0 -0 -0 -0 -0 -0 -0 -0 -0 -0 -0 -0 -0 -89 -73 -31 -115 -41 -38 -46 -0 -0 -0 -0 -0 -28 -29 -275 -0 -0 -0 -361 -352
-0 -0 -0 -0 -0 -0 -0 -0 -0 -0 -0 -0 -0 -0 -0 -0 -0 -0 -0 -0 -0 -0 -0 -0 -0 -93 -112 -106 -83 -72 -16 -17 -20 -57 -0 -18 -31 -0 -216 -0 -0 -0 -0 -0 -0
-0 -0 -0 -0 -0 -0 -0 -0 -0 -0 -0 -0 -0 -0 -0 -0 -0 -0 -0 -0 -0 -0 -0 -0 -0 -0 -143 -107 -69 -94 -82 -34 -22 -20 -34 -41 -77 -84 -248 -309 -0 -0 -0 -0 -0
-0 -0 -0 -0 -0 -0 -0 -0 -0 -0 -0 -0 -0 -0 -0 -0 -0 -0 -0 -0 -0 -0 -0 -0 -0 -0 -149 -67 -200 -122 -51 -65 -42 -70 -79 -117 -152 -161 -296 -350 -0 -0 -0 -0 -0
-0 -0 -0 -0 -0 -0 -0 -0 -0 -0 -0 -0 -0 -0 -0 -0 -0 -0 -0 -0 -0 -0 -0 -0 -0 -0 -194 -257 -81 -122 -172 -46 -48 -112 -109 -103 -156 -197 -274 -296 -347 -0 -0 -210 -0
-0 -0 -0 -0 -0 -0 -0 -0 -0 -0 -0 -0 -0 -0 -0 -0 -0 -0 -0 -0 -0 -0 -0 -0 -0 -0 -275 -178 -164 -0 -70 -114 -100 -111 -120 -66 -156 -206 -249 -275 -338 -396 -425 -468 -0
-0 -0 -0 -0 -0 -0 -0 -0 -0 -0 -0 -0 -0 -0 -0 -0 -0 -0 -0 -0 -0 -0 -0 -0 -0 -0 -0 -116 -61 -72 -175 -194 -144 -137 -127 -52 -111 -211 -226 -251 -286 -353 -405 -441 -0
-0 -0 -0 -0 -0 -0 -0 -0 -0 -0 -0 -0 -0 -0 -0 -0 -0 -0 -0 -0 -0 -0 -0 -0 -0 -0 -0 -0 -94 -0 -98 -56 -124 -183 -110 -88 -84 -221 -226 -235 -249 -310 -346 -382 -416
-0 -0 -0 -0 -0 -0 -0 -0 -0 -0 -0 -0 -0 -0 -0 -0 -0 -0 -0 -0 -0 -0 -0 -0 -0 -0 -0 -0 -0 -158 -91 -91 -85 -143 -103 -136 -107 -233 -247 -238 -238 -239 -291 -39 -281
-0 -0 -0 -0 -0 -0 -0 -0 -0 -0 -0 -0 -0 -0 -0 -0 -0 -0 -0 -0 -0 -0 -0 -0 -0 -0 -0 -0 -51 -81 -36 -0 -62 -84 -139 -116 -132 -173 -193 -219 -277 -254 -207 -205 -171
-0 -0 -0 -0 -0 -0 -0 -0 -0 -0 -0 -0 -0 -0 -0 -0 -0 -0 -0 -0 -0 -0 -0 -0 -0 -0 -0 -0 -0 -0 -12 -66 -5 -40 -90 -101 -63 -179 -179 -223 -298 -279 -226 -167 -177
-0 -0 -0 -0 -0 -0 -0 -0 -0 -0 -0 -0 -0 -0 -0 -0 -0 -0 -0 -0 -0 -0 -0 -0 -0 -0 -0 -0 -0 -0 -91 -42 -73 -103 -123 -111 -61 -108 -92 -230 -297 -259 -256 -202 -183
-0 -0 -0 -0 -0 -0 -0 -0 -0 -0 -0 -0 -0 -0 -0 -0 -0 -0 -0 -0 -0 -0 -0 -0 -0 -0 -0 -0 -0 -0 -43 -0 -90 -164 -105 -63 -49 -71 -173 -168 -236 -262 -246 -238 -186
-0 -0 -0 -0 -0 -0 -0 -0 -0 -0 -0 -0 -0 -0 -0 -0 -0 -0 -0 -0 -0 -0 -0 -0 -0 -0 -0 -0 -0 -0 -0 -0 -0 -0 -64 -88 -57 -35 -140 -201 -186 -143 -191 -191 -170
-0 -0 -0 -0 -0 -0 -0 -0 -0 -0 -0 -0 -0 -0 -0 -0 -0 -0 -0 -0 -0 -0 -0 -0 -0 -0 -0 -0 -0 -0 -0 -0 -0 -0 -0 -93 -15 -0 -177 -219 -233 -292 -225 -168 -139
-0 -0 -0 -0 -0 -0 -0 -0 -0 -0 -0 -0 -0 -0 -0 -0 -0 -0 -0 -0 -0 -0 -0 -0 -0 -0 -0 -0 -0 -0 -0 -0 -0 -0 -0 -0 -0 -128 -207 -229 -286 -274 -269 -208 -182
-0 -0 -0 -0 -0 -0 -0 -0 -0 -0 -0 -0 -0 -0 -0 -0 -0 -0 -0 -0 -0 -0 -0 -0 -0 -0 -0 -0 -0 -0 -0 -0 -0 -0 -0 -0 -0 -0 -63 -152 -218 -199 -213 -290 -212
-0 -0 -0 -0 -0 -0 -0 -0 -0 -0 -0 -0 -0 -0 -0 -0 -0 -0 -0 -0 -0 -0 -0 -0 -0 -0 -0 -0 -0 -0 -0 -0 -0 -0 -0 -0 -0 -0 -0 -0 -154 -195 -190 -299 -178
-0 -0 -0 -0 -0 -0 -0 -0 -0 -0 -0 -0 -0 -0 -0 -0 -0 -0 -0 -0 -0 -0 -0 -0 -0 -0 -0 -0 -0 -0 -0 -0 -0 -0 -0 -0 -0 -0 -0 -0 -138 -155 -281 -247 -69
-0 -0 -0 -0 -0 -0 -0 -0 -0 -0 -0 -0 -0 -0 -0 -0 -0 -0 -0 -0 -0 -0 -0 -0 -0 -0 -0 -0 -0 -0 -0 -0 -0 -0 -0 -0 -0 -0 -0 -87 -149 -146 -175 -227 -197
-0 -0 -0 -0 -0 -0 -0 -0 -0 -0 -0 -0 -0 -0 -0 -0 -0 -0 -0 -42 -0 -0 -0 -0 -0 -0 -0 -0 -0 -0 -0 -0 -0 -0 -0 -0 -0 -49 -59 -161 -117 -267 -215 -196 -185
-0 -0 -0 -0 -0 -0 -0 -0 -0 -0 -0 -0 -0 -0 -0 -0 -0 -0 -100 -74 -31 -0 -0 -0 -0 -0 -0 -0 -0 -0 -0 -0 -0 -0 -0 -0 -0 -64 -53 -53 -113 -249 -281 -229 -174
-0 -0 -0 -0 -0 -0 -0 -0 -0 -0 -0 -0 -0 -0 -0 -0 -0 -0 -110 -97 -68 -119 -91 -0 -0 -0 -0 -0 -0 -0 -0 -0 -0 -0 -0 -0 -0 -0 -123 -80 -156 -232 -229 -162 -144
-0 -0 -0 -0 -0 -0 -0 -0 -0 -0 -0 -0 -0 -0 -0 -0 -0 -0 -0 -0 -51 -109 -79 -79 -0 -0 -0 -0 -0 -0 -0 -0 -0 -0 -0 -0 -0 -91 -100 -166 -201 -230 -174 -108 -129
Wind_Speed
28 28 27 27 26 25 24 23 22 21 20 19 18 18 20 21 20 15 15 16 20 23 21 22 20 21 22 18 15 16 18 28 27 27 29 31 28 27 25 30 30 20 31 34 34
28 28 28 29 29 28 28 27 26 25 24 23 21 19 18 20 21 19 8 15 21 22 21 19 15 18 15 19 19 20 21 26 25 29 29 29 25 26 27 29 25 28 28 33 32
29 29 29 29 29 29 30 30 29 28 27 26 24 22 19 17 20 15 7 15 19 21 20 17 14 15 13 17 17 16 22 28 27 28 28 28 27 24 27 25 27 31 30 30 31
30 30 31 30 30 30 30 30 29 29 28 27 26 24 22 16 9 11 8 13 18 18 18 17 17 12 8 9 13 16 28 25 25 26 26 26 26 25 25 23 27 29 30 31 29
31 32 32 32 32 32 31 31 30 30 28 27 26 24 18 16 8 10 7 6 7 12 15 17 16 13 14 14 15 21 22 24 23 25 26 25 22 24 23 25 27 27 28 28 29
32 33 33 33 33 33 33 32 32 30 29 27 25 23 19 22 16 11 9 6 7 9 12 16 15 16 20 20 18 17 9 13 19 22 28 26 24 23 26 29 29 27 27 28 27
33 33 33 34 34 34 34 34 33 32 30 26 23 20 20 23 12 7 6 8 4 6 9 12 14 12 19 18 18 22 10 13 12 11 22 24 24 24 30 30 28 27 27 28 27
33 34 34 34 35 35 35 34 33 32 27 21 18 19 22 21 24 26 20 25 25 6 17 15 12 16 19 19 9 11 15 17 19 12 17 18 23 26 29 28 26 26 26 27 26
34 35 36 36 36 36 35 34 32 23 17 15 17 18 22 23 20 24 20 19 20 24 25 17 8 12 17 16 14 14 14 20 21 19 16 17 22 25 27 25 24 24 24 24 25
35 35 35 35 34 34 33 31 23 18 16 17 19 20 19 16 19 17 17 21 21 20 21 11 7 9 9 14 18 17 18 22 20 19 20 19 19 24 25 23 22 22 22 22 22
35 35 35 35 33 32 28 22 22 20 22 22 21 20 24 20 22 14 16 17 19 17 18 14 6 18 10 15 11 18 18 16 20 19 19 21 18 23 23 22 22 20 21 21 20
34 35 35 35 33 29 20 20 20 25 29 28 28 33 34 25 23 22 14 17 17 17 15 18 7 29 11 6 9 12 15 16 18 18 18 20 18 19 22 20 21 20 20 20 19
33 33 33 33 31 18 23 21 24 25 23 24 13 14 14 15 25 25 17 18 19 21 20 19 28 27 26 4 5 5 7 10 12 12 18 18 16 16 19 16 18 17 17 21 20
31 30 30 31 18 22 19 22 24 23 19 18 13 14 10 11 20 26 15 16 19 22 22 25 31 30 28 16 8 1 2 9 15 13 4 24 12 12 12 12 11 19 23 25 21
30 29 29 25 22 21 21 22 22 17 15 11 11 13 10 7 15 17 8 15 19 23 18 23 22 22 27 33 9 5 4 5 8 13 9 13 8 5 14 12 21 25 26 27 26
32 30 29 19 23 17 21 22 17 14 14 11 10 11 12 11 17 16 10 13 21 25 26 32 27 25 26 27 22 11 6 11 5 5 10 14 3 4 9 16 19 25 21 27 29
34 32 29 20 16 18 22 16 12 13 17 16 9 10 12 9 14 12 6 5 12 22 30 30 34 29 23 24 14 4 4 14 12 6 10 13 7 4 15 18 16 21 22 25 29
35 32 21 4 12 18 17 11 10 12 15 20 12 7 10 11 10 7 8 8 18 18 23 25 30 24 19 18 19 18 16 16 18 16 21 15 12 17 6 20 11 8 15 19 27
34 26 23 20 6 9 10 9 8 9 17 21 17 4 15 17 15 6 4 6 13 5 18 22 28 23 25 24 18 24 29 19 23 20 21 18 16 19 12 8 12 11 8 23 25
30 24 20 9 7 8 11 10 8 12 22 22 17 14 19 22 15 3 3 8 7 5 2 23 28 27 28 24 26 24 19 24 20 23 23 19 18 14 7 8 14 18 20 9 12
23 20 15 6 7 14 13 12 17 24 23 21 20 22 20 21 21 21 6 9 15 12 4 13 22 31 22 27 25 19 23 20 17 18 20 20 19 13 1 9 13 21 10 9 19
22 19 11 4 15 16 18 15 18 25 28 26 20 20 20 23 25 21 20 18 6 9 6 5 18 27 25 22 20 11 10 16 22 22 18 17 24 20 3 9 12 15 9 17 26
26 21 20 10 19 20 22 28 26 34 33 21 22 20 23 24 22 20 21 24 13 3 8 10 22 34 32 25 17 20 19 19 19 19 25 22 24 21 2 7 12 10 9 19 23
22 22 22 20 21 22 25 29 24 22 28 27 24 24 22 24 18 21 22 20 17 7 5 13 16 24 31 25 17 23 28 28 21 27 27 22 28 10 4 9 11 2 7 17 24
20 22 21 23 22 28 26 25 30 24 17 28 21 21 23 25 27 20 20 20 17 15 19 16 22 22 29 25 23 27 28 34 26 29 25 23 18 3 2 1 8 11 14 21 25
24 24 25 28 26 25 23 20 23 26 28 28 26 26 25 26 21 20 20 18 16 20 17 21 20 21 32 27 26 29 29 27 29 29 28 20 18 17 12 4 5 12 18 20 22
25 25 24 27 26 25 20 24 28 26 23 22 21 23 13 20 21 21 19 22 23 22 21 20 19 21 29 28 26 29 27 24 24 32 34 22 22 15 9 3 2 6 15 17 17
Wind_Direction
318 316 313 310 307 303 300 296 293 290 284 277 271 266 266 270 261 272 150 85 115 120 114 102 97 105 116 131 148 141 138 110 117 87 122 121 113 126 125 111 121 153 136 133 131
315 313 311 311 309 307 305 301 298 295 292 285 279 272 260 268 260 197 40 89 109 118 105 119 142 111 128 120 127 134 131 118 121 102 110 123 114 114 119 112 132 101 109 127 124
316 314 312 309 307 306 306 306 302 299 296 292 288 283 268 247 234 145 50 111 117 122 130 119 128 129 137 137 133 142 129 117 111 112 111 119 118 112 108 120 112 120 116 120 124
315 313 311 310 308 306 303 301 299 297 298 296 294 288 276 307 23 333 46 103 119 119 113 122 134 147 188 178 148 155 103 120 133 124 123 129 128 125 123 125 121 119 121 123 124
317 313 312 310 307 305 303 301 298 295 293 291 292 295 307 301 232 97 48 59 70 91 105 114 110 120 148 164 156 142 143 130 137 142 136 136 144 128 136 112 121 121 125 127 134
317 314 312 310 308 306 303 300 296 292 289 289 291 293 296 257 274 100 68 64 65 91 90 108 114 88 74 136 154 162 196 188 154 139 126 107 101 129 118 119 124 124 131 139 143
315 314 312 310 309 306 303 299 294 289 288 293 299 306 295 203 298 347 333 313 19 84 98 114 118 97 112 120 186 134 211 200 192 193 144 83 88 101 122 124 125 131 136 146 153
312 311 310 308 307 305 303 296 291 288 294 310 319 309 289 273 250 251 262 251 250 296 164 151 59 69 117 85 255 353 234 206 181 215 181 145 111 117 124 123 126 132 139 150 158
309 308 308 306 304 303 301 295 293 311 333 337 317 311 284 277 272 256 266 274 267 253 251 275 11 65 91 78 61 350 82 199 192 184 183 173 109 138 132 126 126 134 140 147 162
306 305 304 302 300 299 296 292 315 330 335 326 308 302 288 298 288 281 278 268 261 263 264 285 322 88 53 97 124 95 82 149 166 160 156 154 118 133 142 134 136 137 142 146 151
308 306 305 301 298 298 300 324 321 320 321 304 299 292 277 289 287 298 274 267 263 275 269 274 286 162 124 143 124 121 97 105 166 154 137 156 115 137 144 146 152 148 149 151 149
306 306 304 301 297 293 338 329 325 307 291 260 230 246 245 281 283 273 283 273 266 267 275 268 230 188 307 60 100 105 102 131 192 147 128 148 124 132 159 158 158 155 157 156 143
303 303 302 298 291 325 299 309 289 296 305 274 334 310 290 298 277 271 281 268 264 259 262 266 246 249 255 2 75 76 106 44 21 349 246 131 135 142 165 163 170 168 162 160 147
298 298 299 298 319 290 296 285 294 310 315 305 338 320 341 315 291 264 276 271 265 260 259 265 248 252 257 279 300 207 31 9 329 313 35 197 150 168 152 168 172 174 176 170 157
294 294 295 288 259 270 267 281 280 328 319 355 356 333 359 40 315 303 287 271 265 257 266 259 260 262 263 245 291 247 177 135 45 107 102 169 142 134 173 192 183 182 178 173 168
295 291 292 326 274 195 257 267 317 322 311 334 357 32 7 317 290 293 307 286 270 266 264 255 264 271 268 272 285 314 161 311 354 39 341 173 112 49 155 186 179 181 169 171 172
296 287 285 313 310 311 277 304 328 303 290 319 15 43 58 67 308 324 349 321 283 271 257 259 255 264 275 276 285 340 303 299 306 313 333 329 345 351 197 184 167 166 168 168 170
295 286 310 26 309 293 299 318 312 328 336 300 329 65 44 51 343 334 9 334 292 282 264 260 256 259 270 277 282 282 290 288 290 292 300 326 344 343 131 171 147 90 148 159 170
298 306 297 295 91 326 319 315 324 349 319 310 306 9 311 314 316 91 99 129 315 319 266 263 259 264 265 278 283 279 266 287 283 292 299 315 328 327 10 118 139 137 134 155 164
305 305 302 335 45 330 305 304 311 320 298 303 312 331 307 298 321 108 65 157 153 114 286 267 258 259 261 284 277 273 285 270 283 279 288 302 312 330 2 122 152 157 156 127 136
319 308 320 60 353 306 299 299 292 279 300 304 306 298 305 301 304 310 355 188 173 160 119 283 263 249 281 281 276 264 278 276 281 288 292 298 304 318 314 141 146 165 144 130 139
312 298 319 5 308 304 296 298 295 281 272 276 303 305 296 291 290 298 310 332 130 164 154 185 277 260 274 285 277 256 279 280 270 276 293 303 298 313 200 148 138 150 110 139 155
300 292 286 289 297 299 293 280 289 253 253 295 300 301 292 291 297 296 297 301 333 81 291 291 273 251 264 276 290 269 281 286 280 283 279 291 295 303 282 149 150 135 119 156 156
301 287 286 280 287 297 293 281 285 286 280 284 293 288 290 286 300 287 297 313 307 348 350 297 291 272 256 262 292 273 269 273 277 269 272 293 289 290 280 158 166 130 132 146 161
297 286 293 281 282 284 286 286 277 281 296 288 290 289 282 281 273 284 297 301 320 308 295 307 290 273 256 269 282 269 276 270 269 262 269 276 306 248 210 347 150 151 141 146 152
287 287 287 281 282 284 286 285 288 281 282 278 284 277 276 276 282 283 288 295 304 290 308 311 296 271 251 267 275 273 272 278 258 259 266 274 279 282 290 13 137 137 143 148 157
291 288 285 276 277 278 280 286 280 293 281 290 296 284 293 286 283 282 287 282 282 282 288 291 306 277 258 261 275 262 260 286 281 259 258 275 276 271 273 251 101 122 138 150 156